[[{"header":{"parameterUnit":"m.s-1","parameterCategory":2,"la1":30.2991,"la2":30.254,"lo1":-89.0895,"lo2":-89.0444,"dy":0.0017,"dx":0.0017,"nx":28,"ny":28,"refTime":"2025-07-08T09:00:00:Z","depth":"0","parameterNumber":2,"parameterNumberName":"U-component_of_CURRENTS"},"data":[0,0,0,0,0,0,0,0,0,0,0,0,0,0,0,0,0,0,0,0,0,0,0,0,0,0,0,0,0,0,0,0,0,0,0,0,0,0,0,0,0,0,0,0,0,0,0,0,0,0,0,0,0,0,0,0,0,0,0.408,0.4081,0,0.4145,0.4145,0.4145,0.4112,0.4111,0.411,0.4109,0.4143,0.4145,0.4146,0,0,0,0,0,0,0,0,0,0,0,0,0,0.3955,0.3957,0.408,0.4081,0.4083,0.4145,0.4145,0.4145,0.4112,0.4111,0.411,0.4109,0.4142,0.4144,0.4147,0,0,0,0,0,0,0,0,0,0,0,0,0,0.4006,0.3957,0.408,0.4079,0.4081,0.4145,0.4145,0.4145,0.4113,0.4111,0.411,0.4108,0.4141,0.4144,0.4147,0.4195,0,0,0.4155,0.4157,0,0,0,0,0,0,0,0,0.4003,0.401,0.4078,0.408,0.4081,0.4126,0.4114,0.4163,0.4113,0.4093,0.4109,0.4107,0.414,0.4143,0.4148,0.4197,0.4198,0.4156,0.4157,0.4159,0.4159,0,0,0,0,0,0,0,0.4,0.4007,0.4098,0.408,0.4082,0.4087,0.4091,0.4123,0.4118,0.4094,0.4094,0.4114,0.414,0.4146,0.4149,0.4198,0.4156,0.4158,0.416,0.4161,0.4374,0.4378,0,0,0,0,0,0,0.4008,0.4004,0.4096,0.4101,0.4046,0.409,0.4095,0.4107,0.4118,0.4121,0.4115,0.4112,0.4142,0.4146,0.415,0.4285,0.4159,0.4161,0.4163,0.437,0.4375,0.4379,0,0,0,0,0,0,0.4005,0.4015,0.4094,0.406,0.4071,0.4095,0.4108,0.4109,0.4125,0.4136,0.4136,0.4132,0.4141,0.4146,0.4209,0.4283,0.4162,0.4165,0.4365,0.4371,0.4377,0.4506,0,0,0,0,0,0,0.4001,0.4013,0.4022,0.4061,0.4074,0.4163,0.411,0.4112,0.4143,0.414,0.4151,0.4151,0.414,0.4205,0.4212,0.4285,0.4167,0.436,0.4368,0.4375,0.4496,0.4515,0.4531,0,0,0,0,0,0.3996,0.4021,0.4022,0.4034,0.4086,0.4166,0.4174,0.4179,0.4146,0.418,0.4184,0.4151,0.4257,0.4211,0.4217,0.4293,0.4356,0.4366,0.4374,0.4488,0.4512,0.4531,0,0,0,0,0,0,0.3974,0.4023,0.4023,0.4062,0.4124,0.4164,0.419,0.4194,0.4222,0.4208,0.4197,0.4202,0.4291,0.4278,0.4226,0.438,0.4305,0.4315,0.4389,0.4411,0.4428,0.4417,0.4169,0,0,0,0,0,0.3976,0.4003,0.4065,0.4099,0.4128,0.416,0.4188,0.4202,0.4235,0.4244,0.4246,0.4268,0.4335,0.4357,0.4397,0.4474,0.4484,0.453,0.4548,0.4563,0.4562,0.4695,0.4724,0.4408,0.4408,0.4408,0,0,0.3975,0.4009,0.4022,0.4097,0.413,0.4202,0.4171,0.4232,0.4294,0.4246,0.4306,0.4331,0.4372,0.4466,0.4504,0.446,0.4654,0.4574,0.4586,0.4577,0.4707,0.4738,0.4765,0.4415,0.4413,0.4412,0,0,0.4003,0.4022,0.4059,0.4121,0.4197,0.4235,0.4261,0.4312,0.4335,0.4411,0.4408,0.4476,0.4535,0.4593,0.4631,0.4773,0.4749,0.4787,0.486,0.4991,0.5018,0.5041,0.5067,0.5092,0.4789,0.4789,0.4789,0,0.4,0.4059,0.4089,0.4158,0.4226,0.4257,0.4342,0.4384,0.4446,0.4496,0.4446,0.4592,0.4606,0.4768,0.4804,0.4814,0.4845,0.4773,0.5014,0.5038,0.506,0.5081,0.5107,0.4797,0.4796,0.4795,0.4794,0,0.4066,0.4122,0.4159,0.4254,0.4336,0.4415,0.45,0.4567,0.4588,0.4625,0.4759,0.4784,0.4873,0.4901,0.4885,0.5067,0.5022,0.5027,0.4955,0.5099,0.5112,0.5136,0.4807,0.4804,0.4802,0.48,0,0,0.4033,0.4175,0.4187,0.4264,0.4399,0.448,0.4611,0.4752,0.4843,0.488,0.5007,0.5096,0.5084,0.5127,0.5137,0.5218,0.5376,0.5177,0.5181,0.519,0.5604,0.5371,0.5373,0.5436,0.5442,0.5446,0.5539,0,0.4079,0.4218,0.4289,0.4449,0.4541,0.4649,0.4778,0.4906,0.4986,0.5103,0.5159,0.5263,0.5185,0.5236,0.5315,0.538,0.5452,0.5345,0.5472,0.5474,0.5241,0.54,0.5099,0.5141,0.5563,0.5567,0.557,0,0.412,0.422,0.4375,0.4578,0.463,0.473,0.4967,0.5084,0.526,0.5326,0.543,0.5452,0.558,0.5489,0.5653,0.5592,0.5602,0.562,0.5625,0.5376,0.5287,0.5074,0.5169,0.5066,0.5607,0.5604,0.5601,0,0.4107,0.4284,0.4417,0.4485,0.471,0.4815,0.494,0.5139,0.5259,0.546,0.5538,0.5686,0.574,0.5834,0.5808,0.5774,0.5953,0.5927,0.572,0.5701,0.5448,0.5396,0.5445,0.606,0.6059,0.6059,0.6059,0,0.4147,0.4251,0.4411,0.4495,0.4675,0.4823,0.5019,0.5176,0.5373,0.5495,0.5622,0.5708,0.5831,0.5907,0.5909,0.5862,0.6047,0.5748,0.5737,0.5477,0.5428,0.5323,0.5289,0.6063,0.6062,0.6061,0.6061,0,0.4138,0.4232,0.4396,0.4609,0.4675,0.4807,0.5045,0.5171,0.5361,0.5529,0.5593,0.5766,0.5837,0.5905,0.6033,0.5939,0.5786,0.5901,0.5517,0.5456,0.5099,0.5081,0.4931,0.4802,0.5699,0.5694,0.569,0,0.4148,0.4228,0.4449,0.4533,0.4628,0.4812,0.4931,0.5154,0.5268,0.5516,0.5575,0.5701,0.5709,0.5783,0.5691,0.5666,0.5594,0.5372,0.5245,0.5048,0.5027,0.4895,0.4791,0.4965,0.4955,0.4947,0.4941,0,0.4187,0.4258,0.4403,0.4539,0.4659,0.4789,0.495,0.5022,0.5245,0.5341,0.5422,0.5447,0.5464,0.5265,0.5222,0.5181,0.5091,0.5199,0.5159,0.4578,0.4284,0.416,0.4883,0.487,0.4877,0.4883,0.4886,0.4889,0.4201,0.4288,0.4427,0.4537,0.4647,0.4677,0.4677,0.48,0.4871,0.4882,0.5097,0.4975,0.4935,0.4781,0.4732,0.445,0.4532,0.4297,0.4327,0.4241,0.3994,0.4485,0.4355,0.4359,0.4362,0.4365,0.4368,0,0.4164,0.4257,0.4393,0.4461,0.4452,0.4548,0.4608,0.4511,0.4411,0.4487,0.4462,0.4294,0.4095,0.4069,0.3841,0.3651,0.3535,0.3572,0.3387,0.3361,0.3945,0.3789,0.333,0.333,0.333,0.3331,0.3331,0.3331,0.4156,0.4226,0.4268,0.4198,0.421,0.4059,0.4002,0.3893,0.3869,0.3636,0.3478,0.3489,0.3611,0.3501,0.3271,0.3181,0.303,0.2785,0.2924,0.3399,0.3472,0.3541,0.339,0.2855,0.2855,0.2158,0.2153,0.2149]},{"header":{"parameterUnit":"m.s-1","parameterCategory":2,"la1":30.2991,"la2":30.254,"lo1":-89.0895,"lo2":-89.0444,"dy":0.0017,"dx":0.0017,"nx":28,"ny":28,"refTime":"2025-07-08T09:00:00:Z","depth":"0","parameterNumber":3,"parameterNumberName":"V-component_of_CURRENTS"},"data":[0,0,0,0,0,0,0,0,0,0,0,0,0,0,0,0,0,0,0,0,0,0,0,0,0,0,0,0,0,0,0,0,0,0,0,0,0,0,0,0,0,0,0,0,0,0,0,0,0,0,0,0,0,0,0,0,0,0,0.0183,0.0183,0,0.015,0.015,0.0149,0.0111,0.0111,0.011,0.011,0.0058,0.0058,0.0057,0,0,0,0,0,0,0,0,0,0,0,0,0,0.0189,0.0189,0.0183,0.0183,0.0183,0.015,0.015,0.0149,0.0111,0.0111,0.011,0.011,0.0059,0.0058,0.0057,0,0,0,0,0,0,0,0,0,0,0,0,0,0.0174,0.0189,0.0183,0.016,0.0158,0.015,0.015,0.0149,0.0112,0.0111,0.011,0.0109,0.0059,0.0058,0.0057,0.0065,0,0,0.0053,0.0052,0,0,0,0,0,0,0,0,0.0175,0.0174,0.0164,0.0162,0.0159,0.0134,0.0133,0.012,0.0112,0.0129,0.011,0.0109,0.0083,0.008,0.0075,0.0062,0.006,0.0052,0.0052,0.0051,0.0051,0,0,0,0,0,0,0,0.0176,0.0175,0.017,0.0164,0.0161,0.0142,0.014,0.013,0.011,0.0127,0.0124,0.0122,0.0081,0.0076,0.0073,0.0059,0.0052,0.0051,0.0051,0.005,0.0088,0.0089,0,0,0,0,0,0,0.0183,0.0176,0.0171,0.0169,0.0165,0.0143,0.014,0.0143,0.0111,0.0105,0.0122,0.012,0.0079,0.0075,0.0071,0.0118,0.0051,0.005,0.0049,0.0086,0.0088,0.009,0,0,0,0,0,0,0.0183,0.0183,0.0172,0.0171,0.0169,0.0144,0.0147,0.0143,0.0136,0.0107,0.0101,0.012,0.0078,0.0073,0.0072,0.0114,0.0049,0.0048,0.0084,0.0087,0.0089,0.0187,0,0,0,0,0,0,0.0184,0.0184,0.0189,0.0172,0.0169,0.0179,0.0148,0.0143,0.0136,0.0132,0.0104,0.0098,0.0077,0.0074,0.0071,0.0111,0.0047,0.0082,0.0085,0.0088,0.0181,0.0193,0.0202,0,0,0,0,0,0.0184,0.0202,0.0189,0.0189,0.0177,0.018,0.0177,0.0156,0.0137,0.0145,0.0124,0.0099,0.0093,0.0074,0.007,0.0111,0.008,0.0084,0.0088,0.0177,0.019,0.0202,0,0,0,0,0,0,0.0206,0.0199,0.0185,0.0199,0.0192,0.0174,0.018,0.0161,0.0151,0.0147,0.0112,0.0107,0.0125,0.0103,0.0082,0.0133,0.0087,0.009,0.0156,0.0168,0.0178,0.0218,0.0046,0,0,0,0,0,0.0213,0.0224,0.0211,0.0221,0.0223,0.02,0.0197,0.0185,0.0172,0.0166,0.0143,0.0131,0.014,0.0139,0.0134,0.0155,0.0142,0.0182,0.0193,0.0202,0.0232,0.0269,0.0286,0.0103,0.0103,0.0103,0,0,0.0221,0.022,0.0224,0.0226,0.0219,0.0236,0.0197,0.0203,0.0221,0.0163,0.0177,0.0161,0.0152,0.0181,0.0189,0.0166,0.0237,0.0207,0.0214,0.0241,0.0275,0.0293,0.0309,0.0106,0.0105,0.0105,0,0,0.0257,0.0247,0.0273,0.0276,0.0275,0.0264,0.0267,0.0253,0.0254,0.0259,0.0239,0.0255,0.0235,0.026,0.0266,0.0332,0.0289,0.0321,0.0409,0.0444,0.046,0.0474,0.0436,0.0446,0.0329,0.0329,0.0329,0,0.0267,0.0297,0.028,0.0309,0.0321,0.0281,0.0316,0.0315,0.0299,0.0333,0.0276,0.0312,0.0286,0.0371,0.0386,0.0361,0.0343,0.0361,0.0459,0.0473,0.0486,0.0444,0.0454,0.0335,0.0334,0.0333,0.0333,0,0.0326,0.0348,0.0366,0.039,0.04,0.0421,0.042,0.0433,0.0414,0.0427,0.0485,0.0451,0.0484,0.0475,0.0443,0.0538,0.048,0.0465,0.043,0.051,0.046,0.0468,0.0342,0.034,0.0339,0.0337,0,0,0.0354,0.04,0.0405,0.0441,0.0447,0.047,0.051,0.0562,0.0639,0.0601,0.0696,0.0687,0.0677,0.0685,0.0655,0.0676,0.0715,0.0609,0.0608,0.0575,0.0741,0.067,0.0671,0.0716,0.0719,0.0722,0.0653,0,0.0406,0.0485,0.0488,0.056,0.0603,0.0597,0.0652,0.0697,0.0731,0.0811,0.0801,0.0867,0.0756,0.0785,0.0787,0.0764,0.0749,0.0732,0.0667,0.0664,0.0596,0.0685,0.0657,0.0594,0.0661,0.0663,0.0663,0,0.0466,0.0515,0.0597,0.068,0.0701,0.0732,0.0846,0.0896,0.1,0.1032,0.1085,0.108,0.1118,0.1001,0.0972,0.0964,0.0856,0.0802,0.0798,0.0716,0.0613,0.0534,0.0606,0.0476,0.0676,0.0675,0.0674,0,0.0516,0.0594,0.0667,0.0689,0.0769,0.0817,0.0862,0.0973,0.1078,0.119,0.1282,0.1296,0.1327,0.1229,0.1087,0.1042,0.1037,0.096,0.0778,0.0767,0.0727,0.071,0.0679,0.0923,0.0923,0.0924,0.0924,0,0.0579,0.0643,0.0698,0.0742,0.0865,0.0887,0.1045,0.1109,0.1249,0.1425,0.14,0.1524,0.1393,0.1365,0.1181,0.102,0.11,0.082,0.0776,0.0752,0.0739,0.0608,0.0503,0.0921,0.0921,0.0922,0.0922,0,0.0639,0.0666,0.0766,0.0852,0.0894,0.0983,0.1146,0.1291,0.1385,0.1611,0.1656,0.1724,0.1683,0.1513,0.1375,0.1161,0.0902,0.0905,0.0847,0.0799,0.0483,0.0383,0.0279,0.022,0.0698,0.0696,0.0695,0,0.0684,0.0738,0.085,0.0937,0.0981,0.1113,0.1242,0.1352,0.1522,0.1746,0.1879,0.1903,0.1948,0.169,0.1348,0.1023,0.0861,0.0755,0.0668,0.0495,0.0352,0.0287,0.0241,0.062,0.0618,0.0616,0.0615,0,0.0786,0.0815,0.0907,0.107,0.1198,0.1357,0.1533,0.1671,0.1845,0.2019,0.2229,0.2273,0.2023,0.1713,0.1259,0.1022,0.0651,0.0709,0.0586,0.0348,0.0226,0.0138,0.0578,0.0601,0.0602,0.0604,0.0604,0.0605,0.0876,0.0961,0.1081,0.1238,0.1394,0.1591,0.1726,0.1928,0.2167,0.2414,0.2449,0.2504,0.204,0.1426,0.1115,0.0522,0.0515,0.0315,0.0217,0.0176,0.0109,0.0484,0.043,0.043,0.043,0.0431,0.0431,0,0.0995,0.11,0.1257,0.1441,0.1615,0.1669,0.1935,0.2074,0.2334,0.2519,0.2656,0.2416,0.1862,0.1301,0.0488,0.0105,-0.0003,-0.0083,-0.0158,-0.0174,0.0215,0.0205,0.0037,0.0037,0.0037,0.0037,0.0037,0.0037,0.1074,0.1241,0.1313,0.1599,0.1729,0.1948,0.2084,0.2291,0.2446,0.2604,0.259,0.2561,0.2116,0.0772,-0.007,-0.0254,-0.0462,-0.0566,-0.0634,-0.0364,-0.0333,-0.0303,-0.0331,-0.0609,-0.061,-0.0957,-0.0961,-0.0964]}],[{"header":{"parameterUnit":"m.s-1","parameterCategory":2,"la1":30.2991,"la2":30.254,"lo1":-89.0895,"lo2":-89.0444,"dy":0.0017,"dx":0.0017,"nx":28,"ny":28,"refTime":"2025-07-08T09:00:00:Z","depth":"2","parameterNumber":2,"parameterNumberName":"U-component_of_CURRENTS"},"data":[0,0,0,0,0,0,0,0,0,0,0,0,0,0,0,0,0,0,0,0,0,0,0,0,0,0,0,0,0,0,0,0,0,0,0,0,0,0,0,0,0,0,0,0,0,0,0,0,0,0,0,0,0,0,0,0,0,0,0.3203,0.3204,0,0.3237,0.3237,0.3238,0.3237,0.3236,0.3236,0.3235,0.3288,0.3289,0.3291,0,0,0,0,0,0,0,0,0,0,0,0,0,0.316,0.316,0.3203,0.3204,0.3204,0.3237,0.3237,0.3238,0.3237,0.3236,0.3236,0.3235,0.3287,0.3289,0.3291,0,0,0,0,0,0,0,0,0,0,0,0,0,0.3184,0.3161,0.3203,0.3208,0.3209,0.3237,0.3237,0.3238,0.3237,0.3236,0.3236,0.3235,0.3286,0.3289,0.3292,0.3319,0,0,0.33,0.3301,0,0,0,0,0,0,0,0,0.3182,0.3185,0.3207,0.3208,0.3209,0.3233,0.3241,0.3266,0.3237,0.3225,0.3235,0.3235,0.3272,0.3276,0.3282,0.3322,0.3324,0.33,0.3301,0.3303,0.3303,0,0,0,0,0,0,0,0.3181,0.3184,0.3216,0.3208,0.3209,0.3217,0.3219,0.3246,0.3251,0.3226,0.3226,0.3232,0.3273,0.3279,0.3283,0.3325,0.33,0.3302,0.3304,0.3305,0.3464,0.3466,0,0,0,0,0,0,0.3178,0.3182,0.3215,0.3217,0.3195,0.3218,0.3221,0.3225,0.325,0.3254,0.3232,0.3232,0.3275,0.328,0.3285,0.3395,0.3303,0.3305,0.3306,0.3461,0.3464,0.3467,0,0,0,0,0,0,0.3177,0.318,0.3213,0.3201,0.3206,0.3219,0.3224,0.3226,0.3257,0.3255,0.3259,0.3264,0.3275,0.3281,0.3334,0.3394,0.3306,0.3309,0.3458,0.3462,0.3466,0.3567,0,0,0,0,0,0,0.3175,0.318,0.3188,0.3201,0.3206,0.3259,0.3225,0.3227,0.326,0.326,0.3283,0.3286,0.3275,0.333,0.3337,0.3396,0.3311,0.3455,0.346,0.3465,0.3561,0.3574,0.3586,0,0,0,0,0,0.3174,0.3186,0.3188,0.3192,0.3215,0.3261,0.3266,0.3272,0.3262,0.3294,0.3303,0.3286,0.3366,0.3335,0.3341,0.3403,0.3452,0.3458,0.3464,0.3555,0.3572,0.3586,0,0,0,0,0,0,0.3176,0.3188,0.319,0.3207,0.3246,0.3262,0.3289,0.3293,0.3324,0.3328,0.3317,0.3322,0.3405,0.3386,0.3351,0.3464,0.3409,0.3416,0.3476,0.3491,0.3504,0.3524,0.3313,0,0,0,0,0,0.3179,0.3195,0.3218,0.3241,0.3261,0.3282,0.3302,0.3314,0.3338,0.3352,0.3355,0.3376,0.3433,0.3444,0.3484,0.3532,0.3555,0.3578,0.3591,0.3601,0.3624,0.3744,0.377,0.3487,0.3487,0.3487,0,0,0.3182,0.3199,0.3204,0.3244,0.3272,0.3313,0.3294,0.3345,0.3382,0.3354,0.3402,0.3435,0.3463,0.3532,0.3564,0.3519,0.3685,0.3609,0.3618,0.3635,0.3753,0.3781,0.3806,0.3491,0.349,0.349,0,0,0.3207,0.3223,0.3245,0.3283,0.3336,0.3357,0.338,0.341,0.3432,0.3496,0.3493,0.3575,0.3608,0.3655,0.3684,0.3795,0.3768,0.378,0.384,0.3957,0.3981,0.4003,0.4029,0.4053,0.3762,0.3762,0.3762,0,0.3212,0.3237,0.3265,0.3307,0.3324,0.3382,0.3408,0.3464,0.3504,0.3537,0.353,0.366,0.3692,0.3803,0.3833,0.3833,0.3839,0.3777,0.3975,0.3998,0.4019,0.404,0.4065,0.3768,0.3767,0.3767,0.3766,0,0.3257,0.3279,0.3308,0.3367,0.3396,0.3445,0.3503,0.3548,0.3586,0.3648,0.3774,0.3832,0.3917,0.3933,0.3918,0.4066,0.4001,0.3998,0.3937,0.4054,0.4067,0.4092,0.3776,0.3774,0.3772,0.3771,0,0,0.3242,0.3316,0.3324,0.3359,0.3421,0.3467,0.3526,0.3613,0.3716,0.3785,0.3907,0.402,0.408,0.4117,0.4122,0.4194,0.4348,0.4137,0.4141,0.4162,0.4526,0.4286,0.4288,0.4359,0.4365,0.437,0.4461,0,0.3263,0.3331,0.3348,0.3424,0.3458,0.3502,0.356,0.3656,0.3777,0.393,0.4036,0.4195,0.4145,0.4219,0.4293,0.4362,0.4421,0.4319,0.441,0.4412,0.4187,0.4313,0.3988,0.4025,0.4484,0.4488,0.4491,0,0.3282,0.3324,0.3373,0.3445,0.3466,0.3525,0.3648,0.3722,0.3936,0.4034,0.4204,0.4326,0.4482,0.4439,0.4601,0.4522,0.4538,0.4558,0.4563,0.4326,0.4219,0.3992,0.4051,0.4531,0.4528,0.4525,0.4522,0,0.3258,0.3338,0.3376,0.3405,0.3502,0.3531,0.359,0.3759,0.3887,0.4146,0.4295,0.4489,0.462,0.4701,0.4744,0.4697,0.4885,0.4848,0.4633,0.4613,0.4351,0.4297,0.4977,0.4977,0.4977,0.4977,0.4977,0,0.3265,0.3309,0.3391,0.3429,0.3527,0.355,0.3697,0.3813,0.4021,0.4184,0.4375,0.4509,0.4696,0.4816,0.4821,0.4784,0.4965,0.4672,0.4648,0.4366,0.4315,0.4768,0.4743,0.498,0.4979,0.4979,0.4978,0,0.324,0.3303,0.3403,0.3499,0.3529,0.3625,0.3771,0.3876,0.4064,0.4283,0.4373,0.4608,0.469,0.4816,0.4947,0.4863,0.4878,0.4808,0.4409,0.4334,0.45,0.448,0.4611,0.4604,0.4598,0.4593,0.4588,0,0.3237,0.328,0.3437,0.353,0.3591,0.3696,0.3724,0.3899,0.4018,0.4272,0.4362,0.4547,0.4569,0.4661,0.4609,0.4594,0.4719,0.4241,0.4111,0.4513,0.4478,0.4466,0.4453,0.3801,0.3791,0.3783,0.3776,0,0.3251,0.3329,0.3366,0.3504,0.3611,0.3711,0.3785,0.3884,0.4022,0.4152,0.4237,0.4275,0.4337,0.4142,0.4129,0.4069,0.4224,0.4057,0.4677,0.3908,0.3748,0.3713,0.3729,0.37,0.3708,0.3713,0.3718,0.3721,0.3219,0.3286,0.3327,0.3449,0.3563,0.3622,0.3607,0.365,0.3715,0.3771,0.3933,0.3823,0.3869,0.363,0.3512,0.3446,0.3717,0.3566,0.3596,0.3633,0.3487,0.3322,0.3164,0.3168,0.3171,0.3175,0.3178,0,0.316,0.3199,0.3263,0.336,0.3361,0.3496,0.3531,0.3419,0.331,0.3404,0.339,0.3091,0.2937,0.2996,0.277,0.2736,0.2758,0.2623,0.2648,0.2724,0.2792,0.2606,0.2047,0.2043,0.204,0.2037,0,0,0.3133,0.3116,0.3109,0.3079,0.3135,0.3044,0.3022,0.2898,0.2892,0.2705,0.2635,0.2815,0.2911,0.2454,0.2387,0.2177,0.2439,0.2091,0.3005,0.3114,0.3177,0.3346,0.3145,0,0,0,0,0]},{"header":{"parameterUnit":"m.s-1","parameterCategory":2,"la1":30.2991,"la2":30.254,"lo1":-89.0895,"lo2":-89.0444,"dy":0.0017,"dx":0.0017,"nx":28,"ny":28,"refTime":"2025-07-08T09:00:00:Z","depth":"2","parameterNumber":3,"parameterNumberName":"V-component_of_CURRENTS"},"data":[0,0,0,0,0,0,0,0,0,0,0,0,0,0,0,0,0,0,0,0,0,0,0,0,0,0,0,0,0,0,0,0,0,0,0,0,0,0,0,0,0,0,0,0,0,0,0,0,0,0,0,0,0,0,0,0,0,0,0.0052,0.0052,0,0.0024,0.0024,0.0024,-0.0007,-0.0007,-0.0008,-0.0008,-0.0057,-0.0058,-0.0058,0,0,0,0,0,0,0,0,0,0,0,0,0,0.006,0.006,0.0052,0.0052,0.0052,0.0024,0.0024,0.0024,-0.0007,-0.0007,-0.0008,-0.0009,-0.0057,-0.0058,-0.0059,0,0,0,0,0,0,0,0,0,0,0,0,0,0.0048,0.006,0.0053,0.0032,0.003,0.0025,0.0024,0.0024,-0.0007,-0.0007,-0.0008,-0.0009,-0.0056,-0.0057,-0.0059,-0.005,0,0,-0.0062,-0.0063,0,0,0,0,0,0,0,0,0.0048,0.0048,0.0036,0.0034,0.0031,0.0011,0.0009,-0.0002,-0.0006,0.0009,-0.0008,-0.0009,-0.0036,-0.0039,-0.0041,-0.0052,-0.0054,-0.0062,-0.0063,-0.0064,-0.0064,0,0,0,0,0,0,0,0.0049,0.0048,0.0042,0.0035,0.0033,0.0018,0.0015,0.0007,-0.0009,0.0007,0.0005,0.0,-0.0038,-0.004,-0.0042,-0.0055,-0.0062,-0.0063,-0.0064,-0.0065,-0.0051,-0.005,0,0,0,0,0,0,0.0053,0.005,0.0043,0.0041,0.0037,0.0018,0.0016,0.0019,-0.0008,-0.0013,0.0001,-0.0001,-0.0037,-0.0041,-0.0044,-0.0017,-0.0064,-0.0065,-0.0065,-0.0052,-0.0051,-0.005,0,0,0,0,0,0,0.0053,0.0053,0.0044,0.0043,0.0041,0.0019,0.0023,0.0019,0.0014,-0.0013,-0.0018,-0.0,-0.0038,-0.0043,-0.0048,-0.002,-0.0065,-0.0066,-0.0054,-0.0052,-0.005,0.0026,0,0,0,0,0,0,0.0054,0.0053,0.0058,0.0044,0.0041,0.0048,0.0023,0.0019,0.0012,0.0009,-0.0015,-0.0021,-0.0039,-0.0046,-0.005,-0.0022,-0.0067,-0.0055,-0.0053,-0.0051,0.0022,0.003,0.0036,0,0,0,0,0,0.0054,0.0069,0.0058,0.0057,0.0048,0.0048,0.0046,0.0028,0.0013,0.0019,0.0,-0.002,-0.0036,-0.0047,-0.0051,-0.0023,-0.0056,-0.0053,-0.0051,0.0019,0.0028,0.0036,0,0,0,0,0,0,0.0073,0.0067,0.0055,0.0066,0.0058,0.0043,0.0048,0.0032,0.0022,0.0021,-0.0011,-0.0016,-0.0009,-0.0028,-0.0039,-0.0013,-0.0047,-0.0045,0.0007,0.0016,0.0023,0.0054,-0.0068,0,0,0,0,0,0.008,0.0089,0.0076,0.0084,0.0084,0.0066,0.0063,0.0053,0.0041,0.0036,0.0013,-0.0001,-0.0,-0.0003,-0.0012,-0.0,-0.0019,0.0016,0.0023,0.003,0.0053,0.0061,0.0072,-0.0042,-0.0042,-0.0042,0,0,0.0087,0.0085,0.0089,0.0088,0.0082,0.0097,0.0063,0.0068,0.0082,0.0033,0.0041,0.0021,0.0007,0.0023,0.0025,0.001,0.0044,0.0033,0.0038,0.0058,0.0065,0.0076,0.0086,-0.004,-0.0041,-0.0041,0,0,0.0119,0.0109,0.0132,0.0133,0.0132,0.0121,0.0124,0.0111,0.0109,0.0111,0.0088,0.009,0.007,0.0079,0.008,0.0124,0.0081,0.0111,0.0177,0.0185,0.0194,0.0203,0.016,0.0164,0.0117,0.0118,0.0118,0,0.0127,0.0157,0.0137,0.0164,0.0173,0.0136,0.0167,0.0162,0.0146,0.0169,0.0124,0.0134,0.0108,0.0159,0.0166,0.0144,0.0118,0.0145,0.0196,0.0204,0.0211,0.0165,0.0169,0.0122,0.0121,0.0121,0.012,0,0.0181,0.0204,0.022,0.024,0.0243,0.0265,0.0255,0.0266,0.0247,0.0249,0.028,0.0242,0.0259,0.0243,0.0212,0.0263,0.0215,0.0202,0.0176,0.0228,0.0175,0.0177,0.0127,0.0126,0.0125,0.0124,0,0,0.0207,0.0251,0.0257,0.0291,0.0291,0.0309,0.0336,0.0372,0.0432,0.0387,0.0456,0.0426,0.0409,0.0409,0.0372,0.0366,0.0368,0.0305,0.0303,0.0266,0.0345,0.0284,0.0279,0.036,0.0362,0.0363,0.0275,0,0.0258,0.0334,0.0332,0.0399,0.044,0.0428,0.0472,0.0498,0.0512,0.0566,0.0534,0.0576,0.0472,0.0492,0.0466,0.0415,0.0384,0.0391,0.0298,0.0295,0.0239,0.0285,0.0305,0.0228,0.0277,0.0277,0.0277,0,0.0314,0.0363,0.0441,0.0518,0.0536,0.0563,0.065,0.0688,0.0749,0.0764,0.0782,0.0762,0.0756,0.0657,0.057,0.0576,0.0465,0.0396,0.0391,0.0319,0.0241,0.0191,0.023,0.0281,0.0281,0.028,0.028,0,0.0364,0.0441,0.0511,0.0532,0.0604,0.0646,0.0683,0.0755,0.0847,0.09,0.0974,0.0935,0.0942,0.0818,0.0651,0.062,0.0538,0.0484,0.0313,0.0304,0.0299,0.0289,0.0416,0.0416,0.0416,0.0417,0.0417,0,0.0426,0.0488,0.0545,0.0588,0.0707,0.0717,0.0856,0.0898,0.1007,0.114,0.1082,0.1156,0.0986,0.0916,0.0724,0.0529,0.059,0.0338,0.0297,0.032,0.0313,0.0348,0.0342,0.0413,0.0414,0.0415,0.0415,0,0.0477,0.0511,0.0608,0.0692,0.0735,0.0816,0.0973,0.1097,0.1161,0.1329,0.136,0.1348,0.1227,0.1035,0.0836,0.0643,0.0458,0.0362,0.0371,0.0332,0.0186,0.0185,0.0171,0.0169,0.0167,0.0165,0.0164,0,0.0516,0.0568,0.0685,0.0773,0.0817,0.0945,0.1068,0.1165,0.1308,0.1441,0.1541,0.1481,0.1429,0.1102,0.0786,0.046,0.0416,0.025,0.0198,0.021,0.0171,0.0172,0.0173,0.0198,0.0197,0.0196,0.0196,0,0.0596,0.0627,0.0715,0.0886,0.1015,0.1178,0.1342,0.1473,0.1599,0.1707,0.1798,0.1756,0.1452,0.1124,0.0692,0.0467,0.0306,0.0218,0.0279,0.0255,0.0229,0.0192,0.0194,0.0188,0.0189,0.0189,0.019,0.019,0.0664,0.0742,0.086,0.1028,0.1185,0.1383,0.1511,0.1674,0.1853,0.1983,0.1944,0.1854,0.1516,0.0939,0.0582,0.0221,0.023,0.0081,0.0088,0.0094,0.0112,0.0083,0.0015,0.0015,0.0015,0.0015,0.0014,0,0.0762,0.0859,0.1011,0.1202,0.1372,0.1444,0.1692,0.1794,0.1953,0.2034,0.2046,0.1694,0.1335,0.095,0.0413,0.0079,0.0073,-0.0038,0.0034,0.0044,0.0052,0.007,-0.004,-0.0041,-0.0042,-0.0042,0,0,0.0828,0.0979,0.1051,0.1326,0.1465,0.1675,0.1803,0.1925,0.2014,0.2023,0.1966,0.1877,0.143,0.1025,0.0584,0.0275,0.0233,0.0207,0.0285,0.0431,0.0443,0.0152,0.0194,0,0,0,0,0]}],[{"header":{"parameterUnit":"m.s-1","parameterCategory":2,"la1":30.2991,"la2":30.254,"lo1":-89.0895,"lo2":-89.0444,"dy":0.0017,"dx":0.0017,"nx":28,"ny":28,"refTime":"2025-07-08T09:00:00:Z","depth":"4","parameterNumber":2,"parameterNumberName":"U-component_of_CURRENTS"},"data":[0,0,0,0,0,0,0,0,0,0,0,0,0,0,0,0,0,0,0,0,0,0,0,0,0,0,0,0,0,0,0,0,0,0,0,0,0,0,0,0,0,0,0,0,0,0,0,0,0,0,0,0,0,0,0,0,0,0,0.1758,0.1758,0,0.1789,0.179,0.1791,0.1852,0.1853,0.1854,0.1854,0.1898,0.1899,0.1899,0,0,0,0,0,0,0,0,0,0,0,0,0,0.1791,0.179,0.1758,0.1758,0.1758,0.1789,0.179,0.1791,0.1852,0.1853,0.1854,0.1855,0.1898,0.1899,0.1899,0,0,0,0,0,0,0,0,0,0,0,0,0,0.1799,0.179,0.1758,0.1788,0.1791,0.1789,0.179,0.1791,0.1852,0.1853,0.1854,0.1855,0.1898,0.1899,0.1899,0.1882,0,0,0.1902,0.1902,0,0,0,0,0,0,0,0,0.1799,0.1799,0.1784,0.1786,0.1789,0.1813,0.1817,0.182,0.1852,0.1834,0.1854,0.1856,0.1867,0.187,0.1881,0.1884,0.1886,0.1902,0.1902,0.1903,0.1903,0,0,0,0,0,0,0,0.1798,0.1798,0.1776,0.1784,0.1787,0.1813,0.1816,0.1819,0.1848,0.1836,0.1839,0.1834,0.1869,0.188,0.1882,0.1887,0.1902,0.1902,0.1903,0.1903,0.2016,0.2019,0,0,0,0,0,0,0.178,0.1797,0.1775,0.1776,0.1791,0.1811,0.1814,0.1809,0.1848,0.1854,0.1833,0.1836,0.1878,0.1881,0.1884,0.1976,0.1902,0.1903,0.1904,0.2014,0.2017,0.202,0,0,0,0,0,0,0.1781,0.1778,0.1773,0.1783,0.1784,0.1808,0.1802,0.1809,0.186,0.1845,0.1852,0.1881,0.1879,0.1883,0.1912,0.1974,0.1904,0.1904,0.2011,0.2015,0.2018,0.209,0,0,0,0,0,0,0.1781,0.1778,0.1796,0.1782,0.1783,0.1803,0.1801,0.1808,0.1849,0.1856,0.1887,0.189,0.188,0.1911,0.1912,0.1974,0.1905,0.2007,0.2013,0.2017,0.2084,0.2096,0.2105,0,0,0,0,0,0.1783,0.1782,0.1797,0.1796,0.1797,0.1804,0.1809,0.1833,0.1851,0.1883,0.1894,0.1892,0.1944,0.1912,0.1914,0.1977,0.2005,0.2011,0.2017,0.2079,0.2093,0.2105,0,0,0,0,0,0,0.1808,0.1788,0.1804,0.1801,0.1821,0.1813,0.1835,0.1856,0.1892,0.1904,0.1901,0.1904,0.1961,0.1956,0.1921,0.2028,0.1984,0.199,0.2032,0.2045,0.2055,0.2064,0.1905,0,0,0,0,0,0.182,0.182,0.1814,0.1823,0.1828,0.1845,0.1861,0.1879,0.189,0.1911,0.1924,0.1949,0.198,0.2,0.2017,0.2058,0.2072,0.211,0.2121,0.213,0.2141,0.2242,0.2263,0.2039,0.2039,0.2038,0,0,0.1835,0.1822,0.1828,0.1831,0.1843,0.1843,0.186,0.1887,0.191,0.1905,0.195,0.1981,0.1999,0.2051,0.2079,0.2058,0.2192,0.2137,0.2144,0.2151,0.225,0.2272,0.2291,0.2042,0.2042,0.2041,0,0,0.184,0.1853,0.1851,0.1863,0.188,0.1876,0.1893,0.191,0.1953,0.1994,0.2005,0.2056,0.2104,0.2121,0.2138,0.2214,0.2243,0.2259,0.2322,0.242,0.2439,0.2456,0.2459,0.2476,0.2267,0.2268,0.2268,0,0.1866,0.1848,0.186,0.1858,0.1857,0.189,0.1887,0.1929,0.1963,0.2007,0.2022,0.2131,0.2129,0.2205,0.2242,0.2235,0.229,0.2267,0.2434,0.2451,0.2468,0.2467,0.2485,0.2272,0.2271,0.2271,0.2271,0,0.1852,0.1858,0.1856,0.1851,0.1864,0.1869,0.1899,0.1948,0.1999,0.2051,0.2168,0.2194,0.2265,0.2292,0.2291,0.2424,0.2421,0.2432,0.2398,0.2495,0.2487,0.2504,0.2278,0.2276,0.2275,0.2274,0,0,0.1843,0.1844,0.1849,0.185,0.1857,0.186,0.1904,0.1957,0.2031,0.2117,0.2219,0.2293,0.2365,0.239,0.2423,0.2513,0.2641,0.255,0.2553,0.2545,0.2839,0.2636,0.2634,0.273,0.2735,0.2738,0.2771,0,0.1828,0.1811,0.1818,0.1816,0.1798,0.1843,0.189,0.1962,0.2054,0.2169,0.2268,0.2383,0.2391,0.2469,0.2559,0.2628,0.2702,0.2629,0.2754,0.2754,0.2559,0.2653,0.2753,0.2783,0.2787,0.279,0.2792,0,0.1797,0.1782,0.1769,0.1795,0.1801,0.1827,0.1909,0.1969,0.2136,0.2231,0.2374,0.2471,0.2596,0.2614,0.2776,0.2758,0.2814,0.2859,0.2861,0.2663,0.2586,0.268,0.2823,0.2821,0.2818,0.2816,0.2814,0,0.174,0.1749,0.1733,0.1735,0.1772,0.1818,0.187,0.2007,0.2108,0.2303,0.2428,0.257,0.2688,0.2798,0.2883,0.2876,0.3063,0.3033,0.2886,0.2868,0.3007,0.2988,0.3172,0.3172,0.3172,0.3172,0.3172,0,0.1677,0.1667,0.1726,0.1714,0.174,0.1811,0.1922,0.1995,0.2194,0.2326,0.2491,0.2613,0.2776,0.2895,0.2934,0.2948,0.3095,0.2905,0.2887,0.3027,0.3011,0.3015,0.2996,0.3173,0.3173,0.3173,0.3173,0,0.1577,0.1618,0.16,0.167,0.1704,0.1734,0.1924,0.2036,0.2235,0.2412,0.2494,0.2699,0.2823,0.2933,0.3075,0.2993,0.3024,0.3001,0.3104,0.3089,0.2735,0.272,0.2797,0.2791,0.2785,0.2781,0.2777,0,0.1507,0.1488,0.155,0.1574,0.1608,0.171,0.1806,0.2011,0.2118,0.2432,0.2483,0.2711,0.2819,0.2838,0.2939,0.2956,0.295,0.291,0.285,0.2734,0.271,0.2703,0.2696,0.2768,0.2767,0.2765,0.2764,0,0.1365,0.1411,0.142,0.1476,0.156,0.1631,0.1772,0.1845,0.2098,0.2313,0.2447,0.2545,0.267,0.2712,0.2766,0.2778,0.2893,0.2853,0.2863,0.2807,0.27,0.268,0.2679,0.2745,0.2748,0.275,0.2751,0,0.1292,0.1268,0.1342,0.1372,0.1476,0.1532,0.161,0.1754,0.1893,0.2214,0.2235,0.2474,0.264,0.2622,0.2662,0.2659,0.261,0.251,0.2537,0.2559,0.2466,0.2295,0.2215,0,0,0,0,0,0.1233,0.1222,0.1245,0.1293,0.1398,0.1449,0.159,0.169,0.1925,0.1966,0.2105,0.2211,0.2313,0.2398,0.2346,0.2518,0.2595,0.2441,0.2487,0.2642,0.2663,0.2576,0,0,0,0,0,0,0.1203,0.1225,0.1218,0.1255,0.1272,0.1375,0.145,0.1582,0.1592,0.183,0.1884,0.2069,0.2173,0.234,0.231,0.2333,0.2311,0.2566,0.2559,0.263,0.2649,0.2667,0.2585,0,0,0,0,0]},{"header":{"parameterUnit":"m.s-1","parameterCategory":2,"la1":30.2991,"la2":30.254,"lo1":-89.0895,"lo2":-89.0444,"dy":0.0017,"dx":0.0017,"nx":28,"ny":28,"refTime":"2025-07-08T09:00:00:Z","depth":"4","parameterNumber":3,"parameterNumberName":"V-component_of_CURRENTS"},"data":[0,0,0,0,0,0,0,0,0,0,0,0,0,0,0,0,0,0,0,0,0,0,0,0,0,0,0,0,0,0,0,0,0,0,0,0,0,0,0,0,0,0,0,0,0,0,0,0,0,0,0,0,0,0,0,0,0,0,0.0062,0.0062,0,0.0055,0.0055,0.0055,0.0037,0.0037,0.0037,0.0036,0.0017,0.0017,0.0017,0,0,0,0,0,0,0,0,0,0,0,0,0,0.0052,0.0052,0.0062,0.0062,0.0062,0.0055,0.0055,0.0055,0.0038,0.0037,0.0036,0.0036,0.0017,0.0017,0.0017,0,0,0,0,0,0,0,0,0,0,0,0,0,0.0052,0.0052,0.0062,0.0052,0.0051,0.0055,0.0055,0.0055,0.0038,0.0037,0.0036,0.0036,0.0017,0.0017,0.0017,0.0029,0,0,0.0016,0.0016,0,0,0,0,0,0,0,0,0.0052,0.0053,0.0054,0.0053,0.0052,0.0046,0.0044,0.0045,0.0038,0.0043,0.0036,0.0035,0.0026,0.0025,0.0026,0.0028,0.0027,0.0016,0.0016,0.0016,0.0016,0,0,0,0,0,0,0,0.0052,0.0053,0.006,0.0054,0.0052,0.0045,0.0044,0.0045,0.0038,0.0043,0.0041,0.004,0.0025,0.0026,0.0025,0.0027,0.0016,0.0016,0.0016,0.0016,0.0021,0.0022,0,0,0,0,0,0,0.0053,0.0053,0.006,0.006,0.005,0.0045,0.0045,0.0049,0.0039,0.0036,0.004,0.0039,0.0027,0.0026,0.0025,0.0045,0.0016,0.0016,0.0016,0.0021,0.0021,0.0022,0,0,0,0,0,0,0.0053,0.0054,0.0061,0.0055,0.0055,0.0046,0.0051,0.0049,0.0048,0.0037,0.0034,0.0041,0.0026,0.0025,0.0027,0.0043,0.0016,0.0016,0.0021,0.0021,0.0022,0.008,0,0,0,0,0,0,0.0053,0.0054,0.0058,0.0056,0.0056,0.0067,0.0051,0.0049,0.0048,0.0046,0.0037,0.0034,0.0026,0.0027,0.0026,0.0043,0.0016,0.002,0.0021,0.0021,0.0078,0.0083,0.0087,0,0,0,0,0,0.0053,0.0066,0.0059,0.0059,0.0061,0.0068,0.0067,0.0058,0.0049,0.0054,0.0046,0.0035,0.0029,0.0027,0.0027,0.0043,0.002,0.0021,0.0021,0.0076,0.0082,0.0086,0,0,0,0,0,0,0.0063,0.0065,0.0057,0.0069,0.0068,0.0064,0.0071,0.0061,0.006,0.006,0.0042,0.004,0.0046,0.0034,0.0032,0.0043,0.0021,0.0022,0.0063,0.0068,0.0072,0.0076,0.0016,0,0,0,0,0,0.0067,0.0077,0.0073,0.0082,0.0085,0.0077,0.0078,0.0074,0.0071,0.0069,0.0058,0.0049,0.0049,0.005,0.0043,0.0055,0.0023,0.0062,0.0066,0.007,0.0071,0.0034,0.0035,0.0023,0.0023,0.0023,0,0,0.0072,0.0075,0.0079,0.0085,0.0085,0.0103,0.0077,0.0086,0.01,0.0069,0.0081,0.0064,0.0053,0.0064,0.0066,0.0057,0.0055,0.0071,0.0074,0.0073,0.0035,0.0036,0.0037,0.0024,0.0024,0.0024,0,0,0.0097,0.0092,0.0113,0.0119,0.0124,0.0121,0.0125,0.0122,0.012,0.0128,0.0108,0.0095,0.0097,0.0088,0.0087,0.0108,0.0076,0.0111,0.0143,0.0107,0.0108,0.0108,0.0067,0.0063,0.0117,0.0117,0.0117,0,0.0102,0.0131,0.0118,0.0145,0.0158,0.0133,0.0164,0.0161,0.0156,0.0158,0.0138,0.0123,0.0107,0.012,0.0127,0.0118,0.0093,0.0129,0.0113,0.0113,0.0112,0.007,0.0065,0.012,0.012,0.012,0.0119,0,0.0147,0.0172,0.0187,0.0212,0.022,0.0244,0.024,0.0244,0.0231,0.0219,0.0216,0.0183,0.0174,0.0166,0.0157,0.0153,0.0135,0.0121,0.0103,0.0117,0.0071,0.0065,0.0124,0.0123,0.0122,0.0122,0,0,0.016,0.0211,0.0216,0.025,0.0263,0.0281,0.0302,0.0315,0.0333,0.0299,0.0312,0.0284,0.0251,0.0244,0.022,0.0187,0.0154,0.0161,0.0157,0.0124,0.0075,0.0073,0.0065,0.0144,0.0143,0.0143,0.0045,0,0.0202,0.0273,0.0281,0.0346,0.0385,0.0379,0.0403,0.0407,0.0394,0.0395,0.0342,0.0342,0.0287,0.029,0.0244,0.0177,0.0141,0.0182,0.0062,0.0059,0.0059,0.0059,0.0141,0.004,0.0039,0.0038,0.0037,0,0.0248,0.0293,0.037,0.0433,0.0449,0.0479,0.0518,0.054,0.0526,0.0516,0.0483,0.0437,0.0383,0.0338,0.0209,0.0241,0.0167,0.0104,0.0099,0.0071,0.0045,0.0022,0.0025,0.0026,0.0026,0.0027,0.0028,0,0.0278,0.0356,0.0425,0.0447,0.0508,0.0543,0.0571,0.0577,0.0615,0.0596,0.0609,0.0515,0.0484,0.0366,0.022,0.0222,0.0072,0.0056,-0.0021,-0.0022,-0.0017,-0.0016,-0.0027,-0.0027,-0.0027,-0.0027,-0.0027,0,0.0326,0.0381,0.0452,0.0491,0.0581,0.0599,0.0679,0.069,0.0716,0.0757,0.0679,0.067,0.0491,0.0381,0.0243,0.0084,0.0082,-0.0019,-0.0046,0.0009,0.0014,-0.0022,-0.002,-0.0031,-0.003,-0.0029,-0.0028,0,0.0355,0.0398,0.0482,0.0562,0.0603,0.0664,0.0772,0.0823,0.0839,0.0889,0.0891,0.0786,0.0635,0.0451,0.0246,0.0126,-0.0031,-0.008,-0.0013,-0.0034,-0.0108,-0.0102,-0.0178,-0.0179,-0.0179,-0.018,-0.0181,0,0.0377,0.0426,0.0538,0.0597,0.0643,0.0748,0.0826,0.0884,0.0928,0.095,0.0961,0.0851,0.0754,0.046,0.0254,-0.0011,-0.0042,-0.0131,-0.012,-0.0104,-0.0123,-0.0116,-0.0109,-0.0182,-0.0182,-0.0182,-0.0182,0,0.0415,0.045,0.052,0.0647,0.0743,0.0859,0.0956,0.1,0.1053,0.1078,0.1026,0.0885,0.0715,0.0461,0.0261,0.0069,-0.0084,-0.0139,-0.0139,-0.0129,-0.011,-0.0126,-0.0119,-0.0185,-0.0184,-0.0184,-0.0184,0,0.0437,0.0485,0.0576,0.0693,0.0808,0.0913,0.0975,0.1029,0.1087,0.1094,0.1063,0.09,0.0791,0.0503,0.031,0.0126,0.0079,0.0012,0.0003,0.0004,0.0082,0.0135,0.0112,0,0,0,0,0,0.0459,0.0519,0.0619,0.074,0.0851,0.0928,0.1036,0.108,0.1125,0.1104,0.1092,0.0938,0.0667,0.0534,0.0351,0.028,0.0033,0.0057,-0.0053,-0.0199,-0.0196,-0.0135,0,0,0,0,0,0,0.0472,0.056,0.0617,0.0759,0.0843,0.098,0.1047,0.1088,0.1061,0.1071,0.0923,0.0884,0.0607,0.0777,0.0346,0.029,0.0192,-0.0063,-0.0067,-0.0201,-0.0198,-0.0196,-0.0132,0,0,0,0,0]}]]